www.pogodaiklimat.ru

Погода и климат >> Архив погоды >> Индонезия >> Танджунгселор


ПОГОДА в Танджунгселоре

  • Прогноз погоды в Танджунгселоре
  • Монитор погоды в Танджунгселоре

АРХИВ ПОГОДЫ в Танджунгселоре

Время (UTC), дата Ветер
(напр.,м/с)
 
Видим.   Явления Облачность Т
(С)
Тd
(С)
f
(%)
Тe
(С)
Тes
(С)
Комфортность P
(гПа)
Po
(гПа)
Тmin
(С)
Tmax
(С)
R
(мм)
R24
(мм)
S
(см)
18 14.09 штиль 0 500 м дым 5/3 420 м
[Cu hum As op Ci fib]
+24.8 +23.5 92 +33 +33 очень
душно
1010.2 1009.9
21 14.09 штиль 0 500 м дым 5/3 420 м
[Cu hum As op Ci fib]
+23.6 +22.6 94 +31 +31 очень
душно
1010.0 1010.4
00 15.09 штиль 0 500 м дым 6/4 450 м
[Sc diur, vesp As trans Cs]
+24.6 +23.3 92 +33 +36 очень
душно
1012.0 1011.7 +23.0
03 15.09 ЮВ 2 400 м дым 6/4 450 м
[Sc diur, vesp As trans Cs]
+30.6 +22.1 61 +40 +50 очень
душно
1010.5 1010.1
06 15.09 СВ 4 400 м дым 8/3 450 м
[Sc As trans Cs]
+34.2 +22.6 51 +44 +50 опасность
перегрева
1007.3 1007.0
09 15.09 штиль 0 500 м дым 9/3 450 м
[Cu hum As trans Cs]
+33.0 +23.8 59 +45 +46 опасность
перегрева
1006.8 1006.2
12 15.09 В 2 300 м дым 4/1 450 м
[Sc As op Cs]
+27.6 +25.0 86 +40 +40 очень
душно
1009.2 1008.8 +34.4
15 15.09 В 3 300 м дым 4/1 450 м
[Sc Ac As Cs]
+26.4 +24.7 90 +37 +37 очень
душно
1011.1 1010.7
18 15.09 штиль 0 300 м дым 6/3 450 м
[Sc Ac As Cs]
+25.6 +24.6 94 +36 +36 очень
душно
1010.3 1009.9
21 15.09 ЮВ 1 300 м дым 8/3 450 м
[Sc Ac As Cs]
+25.4 +24.4 94 +35 +35 очень
душно
1010.7 1010.4
00 16.09 ЮВ 4 300 м дым 8/3 450 м
[Sc Ac As Ci fib]
+26.4 +24.4 89 +37 +38 очень
душно
1011.4 1011.0 +23.8
03 16.09 ЮВ 4 300 м дым 8/4 450 м
[Cu hum Ac As Ci fib]
+31.2 +24.2 66 +43 +49 опасность
перегрева
1010.7 1010.4
06 16.09 СВ 4 400 м дым 8/4 450 м
[Sc diur, vesp As trans Ci fib]
+33.4 +23.5 56 +44 +49 опасность
перегрева
1007.7 1007.3
09 16.09 СВ 6 500 м дым 8/4 450 м
[Sc diur, vesp As trans Ci fib]
+31.0 +24.3 68 +43 +44 опасность
перегрева
1007.1 1006.8
12 16.09 В 1 400 м дым 8/4 450 м
[Sc diur, vesp Ac As Ci fib]
+27.4 +23.3 78 +37 +37 очень
душно
1009.0 1008.6 +33.5
15 16.09 штиль 0 1000 м дым 8/4 450 м
[Sc diur, vesp Ac As Ci fib]
+26.2 +23.8 87 +36 +36 очень
душно
1010.5 1010.1
18 16.09 штиль 0 1000 м дым 8/4 450 м
[Sc Ac As Ci fib]
+24.8 +23.4 92 +33 +33 очень
душно
1009.6 1009.2
21 16.09 штиль 0 1000 м дым 8/4 450 м
[Sc Ac As Ci fib]
+24.6 +23.9 96 +34 +34 очень
душно
1010.0 1009.6
00 17.09 В 2 1000 м дым 10/3 450 м
[Cu hum Ac As Cs]
+25.9 +24.2 90 +36 +37 очень
душно
1011.0 1010.8 +24.6
03 17.09 Ю 4 1000 м дым 10/3 450 м
[Cu hum Ac As Cs]
+30.0 +24.8 74 +43 +48 опасность
перегрева
1010.9 1010.5
06 17.09 ЮВ 3 1000 м дым 10/3 450 м
[Cu hum Ac As Cs]
+34.2 +24.3 56 +46 +51 опасность
перегрева
1007.7 1007.3
09 17.09 СВ 4 1000 м дым 8/4 450 м
[Cu hum Ac As Cs]
+31.7 +25.3 69 +46 +46 опасность
перегрева
1007.7 1007.3
12 17.09 В 2 1500 м дым 8/4 450 м
[Cu hum Ac As Ci fib]
+28.6 +24.8 80 +41 +41 опасность
перегрева
1010.2 1009.8 +33.5
15 17.09 штиль 0 1500 м дым 8/4 450 м
[Cu hum Ac As Ci fib]
+27.0 +24.8 88 +39 +39 очень
душно
1011.7 1011.3
18 17.09 штиль 0 1500 м дым 8/4 450 м
[Cu hum Ac As Ci fib]
+26.3 +24.9 92 +38 +38 очень
душно
1010.5 1010.2
21 17.09 штиль 0 1500 м дым 8/4 450 м
[Cu hum Ac As Ci fib]
+25.3 +24.2 94 +35 +35 очень
душно
1010.6 1010.2
00 18.09 В 2 1500 м дым 8/4 450 м
[Cu hum As trans Ci fib]
+27.0 +24.6 87 +38 +40 очень
душно
1012.5 1012.1 +25.0
03 18.09 В 3 3500 м дым 8/4 450 м
[Cu hum As trans Ci fib]
+32.7 +22.9 56 +43 +49 опасность
перегрева
1011.7 1011.3
06 18.09 СВ 3 3000 м дым 9/4 450 м
[Cu hum Ac As Cs]
+34.2 +22.0 49 +43 +48 опасность
перегрева
1008.6 1008.2
09 18.09 СВ 5 3000 м дым 9/3 450 м
[Cu hum Ac As Cs]
+32.0 +25.2 67 +46 +46 опасность
перегрева
1008.3 1007.9
12 18.09 штиль 0 3000 м дым 6/3 450 м
[Sc Ac As Cs]
+28.3 +25.1 83 +41 +41 опасность
перегрева
1010.7 1010.3 +34.7
15 18.09 штиль 0 2500 м дым 4/1 450 м
[Sc Ac As Cs]
+26.5 +24.8 90 +38 +38 очень
душно
1011.9 1011.5
18 18.09 штиль 0 2500 м дым 3/1 450 м
[Sc Ac As Cs]
+25.6 +24.6 94 +36 +36 очень
душно
1011.0 1010.6
21 18.09 В 2 2500 м дым 8/3 450 м
[Sc Ac As Cs]
+25.8 +24.8 94 +37 +37 очень
душно
1011.5 1011.1
00 19.09 В 2 1500 м дым 9/4 450 м
[Sc Ac As Cs]
+27.4 +25.0 87 +39 +41 очень
душно
1013.3 1012.9 +25.6
03 19.09 ЮВ 4 2000 м дым 9/3 450 м
[Cu hum Ac trans Cs]
+31.8 +23.7 62 +43 +48 опасность
перегрева
1011.9 1011.6
06 19.09 СВ 1 3000 м дым 9/4 420 м
[Cu hum Ac As Cs]
+34.1 +22.9 52 +44 +51 опасность
перегрева
1009.3 1008.9
09 19.09 СВ 4 3000 м дым 9/4 420 м
[Cu hum Ac As Cs]
+32.8 +25.2 64 +47 +47 опасность
перегрева
1008.7 1008.3
12 19.09 СВ 3 3000 м дым 6/3 450 м
[Sc Ac As Cs]
+28.0 +24.6 82 +40 +40 очень
душно
1010.7 1010.4 +34.5
15 19.09 штиль 0 3000 м дым 6/1 450 м
[Sc Ac As Cs]
+26.2 +24.4 90 +37 +37 очень
душно
1011.7 1011.4
18 19.09 штиль 0 3000 м дым 6/3 450 м
[Cu hum Ac trans Cs]
+25.8 +24.1 90 +36 +36 очень
душно
1010.9 1010.5
21 19.09 штиль 0 3000 м дым 6/3 450 м
[Cu hum Ac trans Cs]
+25.3 +24.5 95 +35 +35 очень
душно
1011.1 1010.7
00 20.09 СВ 1 1500 м дым 6/4 420 м
[Sc diur, vesp As trans Ci fib]
+26.5 +24.8 90 +38 +40 очень
душно
1012.1 1011.7 +24.9
03 20.09 СВ 2 5000 м дым 6/4 450 м
[Sc diur, vesp As trans Ci fib]
+31.8 +24.1 64 +44 +54 опасность
перегрева
1011.2 1010.8
06 20.09 С 5 4000 м дым 6/4 450 м
[Cu hum As trans Ci fib]
+34.4 +23.0 52 +45 +49 опасность
перегрева
1008.1 1007.7
09 20.09 СВ 5 3500 м дым 6/4 450 м
[Cu hum As trans Ci fib]
+31.9 +24.3 64 +44 +45 опасность
перегрева
1007.7 1007.3
12 20.09 штиль 0 3000 м дым 5/3 450 м
[Sc Ac As Cs]
+28.0 +24.8 83 +40 +40 очень
душно
1009.8 1009.4 +34.9
15 20.09 штиль 0 3000 м дым 4/3 450 м
[Sc Ac As Cs]
+26.8 +24.7 88 +38 +38 очень
душно
1011.2 1010.8
18 20.09 штиль 0 3000 м дым 6/3 450 м
[Sc Ac As Cs]
+25.8 +24.6 93 +36 +36 очень
душно
1010.6 1010.3
21 20.09 штиль 0 3000 м дым 6/3 450 м
[Sc Ac As Cs]
+25.4 +24.4 94 +35 +35 очень
душно
1010.3 1010.0
00 21.09 штиль 0 3000 м дым 8/3 450 м
[Sc Ac As Cs]
+26.6 +25.1 91 +38 +41 очень
душно
1012.1 1011.7 +25.2
03 21.09 В 3 3000 м дым 9/4 450 м
[Cu hum Ac As Cs]
+31.0 +23.8 66 +43 +49 опасность
перегрева
1011.4 1011.0
06 21.09 СВ 6 3500 м дым 9/4 450 м
[Cu hum Ac As Ci fib]
+32.4 +24.0 61 +44 +47 опасность
перегрева
1008.7 1008.4
09 21.09 С 7 4500 м дым 9/4 450 м
[Cu hum Ac As Ci fib]
+31.2 +26.1 74 +47 +47 опасность
перегрева
1008.3 1008.0
12 21.09 С 1 5000 м дым 8/4 450 м
[Cu hum As trans Ci fib]
+28.2 +24.4 80 +40 +40 очень
душно
1011.0 1010.6 +33.3

 

Местоположение метеостанции Танджунгселор (Индонезия): широта 2.85 долгота 117.33 высота над уровнем моря 50 м.

В архиве по умолчанию представлена погода в Танджунгселоре за последнюю неделю. Архивные данные за месяц целиком и за предыдущие месяцы, начиная с января 2011 года, Вы можете получить, выбрав интересующий диапазон дат из раскрывающегося списка и нажав кнопку "Ввод!".


*Определитесь, кто Вы:
робот инопланетянин человек

Внимание! Время в таблицах - всемирное. Для получения местного времени необходимо прибавить поправку, которая равна 8 ч.

Смотрите также архив погоды в соседних городах и на ближайших метеорологических станциях:

Погода в Таракане (Индонезия) (59 км)
Погода в Танджунгредепе (Индонезия) (82 км)
Погода в Тавау (Малайзия) (169 км)
Погода в Лонгбаване (Индонезия) (208 км)
Погода в Сандакане (Малайзия) (349 км)
Погода в Брунее (Бруней) (353 км)
Погода в Лабуане (Малайзия) (357 км)
Погода в Кота-Кинабалу (Малайзия) (371 км)
Погода в Самаринде (Индонезия) (386 км)
Погода в Мири (Малайзия) (407 км)

Пояснения к столбцам:

Ветер - указаны скорость ветра в м/с - средняя за 10 мин, порывы в срок и между сроками (в фигурных скобках) и направление, откуда дует ветер: С - северный, СВ - северо-восточный, В - восточный, ЮВ - юго-восточный, Ю - южный, ЮЗ - юго-западный, З - западный, СЗ - северо-западный.
Видимость - горизонтальная дальность видимости в метрах или километрах. При видимости от 1 до 10 км при отсутствии осадков обычно наблюдается дымка, при ухудшении видимости до 1 км и менее - туман. В сухую погоду видимость может ухудшаться дымом, пылью или мглою.
Явления - указаны атмосферные явления, наблюдавшиеся в срок или в последний час перед сроком; фигурными скобками обозначены явления, наблюдавшиеся между сроками (за 1-3 часа до срока); квадратными скобками обозначены град или гололедные отложения с указанием их диаметра в мм.
Облачность - указаны через наклонную черту общая и нижняя облачность в баллах и высота нижней границы облаков в метрах; квадратными скобками обозначены формы облаков: Ci - перистые, Cs - перисто-слоистые, Cc - перисто-кучевые, Ac - высококучевые, As - высокослоистые, Sc - слоисто-кучевые, Ns - слоисто-дождевые, Cu - кучевые, Cb - кучево-дождевые. Подробнее классификацию облаков см. в Атласе облаков (PDF).
T - Температура воздуха - температура, измеренная на высоте 2 м над землей.
Td - Температура точки росы - температура, при понижении до которой содержащийся в воздухе водяной пар достигнет насыщения.
f - Относительная влажность воздуха - влажноcть воздуха, измеренная на высоте 2 м над землей.
Te - Эффективная температура - температура, которую ощущает одетый по сезону человек в тени. Характеристика душности погоды. При расчете учитывается влияние влажности воздуха и скорости ветра на теплоощущения человека.
Tes - Эффективная температура на солнце - температура, которую ощущает человек, с поправкой на солнечный нагрев. Характеристика знойности погоды. Зависит от высоты солнца над горизонтом, облачности и скорости ветра. Ночью, в пасмурную погоду, а также при ветре 12 м/с и более поправка равна нулю.
P - Атмосферное давление - приведенное к уровню моря атмосферное давление.
Po - Атмосферное давление - измеренное на уровне метеостанции атмосферное давление.
Tmin - Минимальная температура - минимум температуры воздуха на высоте 2 м над землей.
Tmax - Максимальная температура - максимум температуры воздуха на высоте 2 м над землей.
R - Количество осадков - Количество выпавших осадков за период времени, мм. При наведении курсора мыши на число - период времени, за который выпало указанное количество осадков.
R24 - Количество осадков - Количество выпавших осадков за 24 часа, мм.
S - Снежный покров - Высота снежного покрова, см. При наведении курсора мыши на число - состояние снежного покрова и степень покрытия местности в баллах.